GAOFEN 4

Last updated on Dec. 5, 2020, 6:13 a.m. UTC

1 41194U 15083A   20339.91574181 -.00000319  00000-0  00000-0 0  9993
2 41194   0.0078 335.1949 0002451 244.9786 289.4055  1.00272140 18236
UTC
Height (km)
Latitude
Longitude
Inclination
Orbital Period
UTC large
Height (km)
Speed (km/s)
/
Latitude / Longitude
Inclination (degrees)
Orbital Period (minutes)
Azimuth
Elevation
Range (km)
Doppler Factor
iOS Compass Heading
iOS Angle

Next 30 passes for location: Hong Kong

Rise time Rise Azimuth (degrees) Set time Set Azimuth (degrees) Duration Max altitude (degrees)

No matching passes for this satellites